Location: Asheville, NC
(35.6000°N, 82.5500°W)
Time: 20:21:17

XW-2D - Pass Details

Date: 10 March 2018
Orbit: 511 x 530 km, 97.5° (Epoch: 19 March)

Event Time Altitude Azimuth Distance (km) Brightness Sun altitude
Rises 05:29:22 0° 35° (NE) 2,655 ? -16.8°
Reaches altitude 10° 05:32:28 10° 64° (ENE) 1,765 ? -16.2°
Maximum altitude 05:34:21 13° 93° (E) 1,567 ? -15.8°
Drops below altitude 10° 05:36:13 10° 123° (ESE) 1,763 ? -15.4°
Sets 05:39:18 0° 151° (SSE) 2,649 ? -14.8°
